Flag for Germany Weather past 2 weeks in Eisenhüttenstadt, Brandenburg, Germany

Now
65 °F

Low clouds.


Feels Like: 65 °F
Forecast: 60 / 84 °F
Wind: 5 mph from East

Location: Lindenberg

Current Time: Jul 25, 2014 at 2:20:09 PM

Latest Report: Jul 25, 2014 at 1:00 PM


Visibility: 5 mi

Pressure: 29.94 "Hg

Humidity: 93%

Dew point: 63 °F

Location of EisenhüttenstadtLocation

Historic Weather in Eisenhüttenstadt — Graph

°F

Eisenhüttenstadt temperature yesterday

Maximum temperature yesterday: 67 °F (at 10:00 AM)
Minimum temperature yesterday: 59 °F (at 6:00 AM)
Average temperature yesterday: 62 °F

Past Weeks' High & Low Weather Summary

 TemperatureHumidityPressure
High93 °F (Jul 20, 4:00 PM)99% (Jul 11, 1:00 AM)30.16 "Hg (Jul 11, 1:00 AM)
Low53 °F (Jul 13, 6:00 AM)25% (Jul 20, 5:00 PM)29.70 "Hg (Jul 10, 2:00 PM)
Average71 °F67%29.94 "Hg
* Reported Jul 10 1:00 PM — Jul 25 1:00 PM, Eisenhüttenstadt, Weather by CustomWeather, © 2014

Note: Actual official high and low records may vary slightly from our data, if they occured in-between our weather recording intervals... More about our weather records

Advertising

Eisenhüttenstadt weather history for previous 24 hours

 ConditionsComfort  
Time TempWeatherWind HumidityBarometerVisibility
1:00 PM
Jul 25
65 °FLow clouds.5 mph93%29.94 "Hg5 mi
12:00 PM66 °FLight rain. Overcast.2 mph86%29.94 "Hg7 mi
11:00 AM68 °FLight rain. Overcast.2 mph83%29.95 "Hg9 mi
10:00 AM68 °FLight rain. Overcast.3 mph83%29.95 "Hg5 mi
9:00 AM66 °FFog.2 mph91%29.95 "Hg4 mi
8:00 AM64 °FOvercast.3 mph93%29.95 "Hg4 mi
7:00 AM63 °FOvercast.3 mph94%29.94 "Hg4 mi
6:00 AM62 °FOvercast.2 mph94%29.94 "Hg5 mi
4:00 AM62 °FLight rain. Overcast.3 mph93%29.93 "Hg6 mi
3:00 AM62 °FLight rain. Overcast.2 mph94%29.93 "Hg6 mi
2:00 AM62 °FOvercast.2 mph95%29.94 "Hg7 mi
1:00 AM62 °FOvercast.2 mph92%29.97 "Hg9 mi
12:00 AM61 °FOvercast.2 mph94%29.97 "Hg9 mi
10:00 PM
Jul 24
62 °FLight rain. Overcast.3 mph94%29.98 "Hg5 mi
9:00 PM62 °FLight rain. Overcast.3 mph93%29.98 "Hg5 mi
8:00 PM62 °FLight rain. Overcast.3 mph91%29.98 "Hg5 mi
7:00 PM63 °FLight rain. Overcast.3 mph88%29.98 "Hg9 mi
6:00 PM63 °FLight rain. Overcast.3 mph90%29.98 "Hg9 mi
4:00 PM65 °FLight rain. Overcast.3 mph85%30.01 "Hg16 mi
3:00 PM65 °FLight rain. Overcast.3 mph85%30.02 "Hg9 mi
2:00 PM66 °FLight rain. Overcast.3 mph80%30.03 "Hg9 mi
Weather by CustomWeather, © 2014

See weather overviewHow to use our weather pages